Location: Hobi?a Gr?di?te
(45.4833°N, 22.7833°E)
Time: 10:42:47
(UTC+00:00)

SL-16 R/B - Pass Details

Date: 28 January 2023
Orbit: 842 x 846 km, 71.0° (Epoch: 30 March)

Event Time Altitude Azimuth Distance (km) Brightness Sun altitude
Rises 18:13:43 0° 215° (SW) 3,386 5.8 -28.8°
Reaches altitude 10° 18:16:11 10° 219° (SW) 2,456 5.0 -29.2°
Maximum altitude 18:21:45 61° 300° (WNW) 957 2.6 -30.2°
Enters shadow 18:22:25 57° 331° (NNW) 994 2.6 -30.3°
